Location: Aranbee
(34.0885°N, 118.2342°W)
Time: 16:52:11
(UTC+00:00)

A-11 Canister half - Pass Details

Date: 04 August 2021
Orbit: 1514 x 1685 km, 47.2° (Epoch: 17 September)

Event Time Altitude Azimuth Distance (km) Brightness Sun altitude
Rises 06:10:08 0° 305° (NW) 4,907 12.6 -32.6°
Reaches altitude 10° 06:13:16 10° 306° (NW) 3,931 11.8 -32.9°
Maximum altitude 06:23:28 88° 35° (NE) 1,689 9.0 -33.9°
Enters shadow 06:24:56 71° 120° (ESE) 1,766 9.0 -34.1°
